This is the latest recevied weather packets stored in our database for station/object JS2QVS-13. If no packets are shown the sender has not sent any weather packets the latest 10 day(s).
| Time | Temp. | Humidity | Pressure | Rain* | Wind** | Luminosity | Snow |
|---|---|---|---|---|---|---|---|
| 1777877862 | 22.22° C | 49% | 999.4 hPa | 0 mm | - | - | - |
| 1777877262 | 21.67° C | 47% | 999.2 hPa | 0 mm | - | - | - |
| 1777876662 | 21.67° C | 47% | 999.1 hPa | 0 mm | - | - | - |
| 1777876062 | 21.67° C | 46% | 999.1 hPa | 0 mm | - | - | - |
| 1777875462 | 21.67° C | 46% | 999.2 hPa | 0 mm | - | - | - |
| 1777874862 | 21.67° C | 45% | 999 hPa | 0 mm | - | - | - |
| 1777874262 | 21.67° C | 44% | 999 hPa | 0 mm | - | - | - |
| 1777873662 | 21.67° C | 44% | 999.1 hPa | 0 mm | - | - | - |
| 1777873061 | 21.67° C | 44% | 999.1 hPa | 0 mm | - | - | - |
| 1777872461 | 21.67° C | 45% | 998.6 hPa | 0 mm | - | - | - |
| 1777871863 | 22.22° C | 46% | 998.4 hPa | 0 mm | - | - | - |
| 1777871263 | 22.78° C | 46% | 998.3 hPa | 0 mm | - | - | - |
| 1777870663 | 23.89° C | 45% | 998.3 hPa | 0 mm | - | - | - |
| 1777870063 | 23.89° C | 46% | 998.3 hPa | 0 mm | - | - | - |
| 1777869462 | 23.89° C | 45% | 998.3 hPa | 0 mm | - | - | - |
| 1777868862 | 23.89° C | 46% | 998.4 hPa | 0 mm | - | - | - |
| 1777868262 | 23.89° C | 44% | 998.2 hPa | 0 mm | - | - | - |
| 1777867662 | 23.89° C | 42% | 998.3 hPa | 0 mm | - | - | - |
| 1777867062 | 23.89° C | 42% | 998.4 hPa | 0 mm | - | - | - |
| 1777866462 | 23.89° C | 47% | 998.2 hPa | 0 mm | - | - | - |
| 1777865862 | 23.33° C | 52% | 998.2 hPa | 0 mm | - | - | - |
| 1777865262 | 23.33° C | 52% | 998.2 hPa | 0 mm | - | - | - |
| 1777864662 | 23.89° C | 51% | 998.1 hPa | 0 mm | - | - | - |
| 1777864061 | 23.89° C | 51% | 998.2 hPa | 0 mm | - | - | - |
| 1777863461 | 23.89° C | 53% | 998.3 hPa | 0 mm | - | - | - |
* Rain latest hour (hover to see other rain measurements)
** Current wind speed in m/s (hover to see current wind gust speed)